Mayfld Grav Cnty AP, Mayfield, KY

1:52 AM CST on December 15, 2019 (GMT -0600)
Mayfld Grav Cnty AP, Mayfield

Weather History for KM25 - November, 2019

Change the Weather History Date:

Saturday, November 16, 2019

  Actual Average (KPAH) Record (KPAH)
Temperature  
Mean Temperature 40 °F -  
Max Temperature 51 °F 57 °F 78 °F (1958)
Min Temperature 30 °F 35 °F 16 °F (1997)
Degree Days  
Heating Degree Days 24    
Moisture  
Dew Point 30 °F    
Average Humidity 74    
Maximum Humidity 100    
Minimum Humidity 47    
Precipitation  
Precipitation 0.00 in - - ()
Sea Level Pressure  
Sea Level Pressure 30.25 in    
Wind  
Wind Speed 4 mph (NNE)    
Max Wind Speed 9 mph    
Max Gust Speed -    
Visibility 10 miles    
Events      
Averages and records for this station are not official NWS values.
T = Trace of Precipitation, MM = Missing Value Source: NWS Daily Summary

Daily Weather History Graph

Daily Weather History Graph

Search for Another Location

Airport or City:

Astronomy

Nov. 16, 2019 Rise Set
Actual Time 6:33 AM CST 4:44 PM CST
Civil Twilight 6:05 AM CST 5:12 PM CST
Nautical Twilight 5:34 AM CST 5:43 PM CST
Astronomical Twilight 5:03 AM CST 6:14 PM CST
Moon 8:19 PM CST (11/16) 10:24 AM CST (11/16)
Length of Visible Light 11h 06m
Length of Day
10h 11m
Waning Gibbous, 82% of the Moon is Illuminated
Nov 16
Waning Gibbous
Nov 19
Last Quarter
Nov 26
New
Dec 4
First Quarter
Dec 11
Full

Hourly Weather History & Observations

Time (CST) Temp. Windchill Dew Point Humidity Pressure Visibility Wind Dir Wind Speed Gust Speed Precip Events Conditions
12:15 AM 32.0 °F 28.7 °F 26.6 °F 80% 30.32 in 10.0 mi North 3.5 mph - N/A   Clear
12:35 AM 32.0 °F 28.7 °F 26.6 °F 80% 30.31 in 10.0 mi North 3.5 mph - N/A   Clear
12:55 AM 32.0 °F 28.7 °F 26.6 °F 80% 30.31 in 10.0 mi North 3.5 mph - N/A   Clear
1:15 AM 32.0 °F 28.7 °F 26.6 °F 80% 30.31 in 10.0 mi North 3.5 mph - N/A   Clear
1:35 AM 30.2 °F 25.4 °F 26.6 °F 86% 30.31 in 10.0 mi North 4.6 mph - N/A   Clear
1:55 AM 30.2 °F - 26.6 °F 86% 30.31 in 10.0 mi Calm Calm - N/A   Clear
2:15 AM 30.2 °F 26.7 °F 26.6 °F 86% 30.31 in 10.0 mi North 3.5 mph - N/A   Clear
2:35 AM 30.2 °F 26.7 °F 26.6 °F 86% 30.31 in 10.0 mi North 3.5 mph - N/A   Clear
2:55 AM 30.2 °F 26.7 °F 26.6 °F 86% 30.31 in 10.0 mi NNE 3.5 mph - N/A   Clear
3:55 AM 30.2 °F 25.4 °F 26.6 °F 86% 30.31 in 10.0 mi NNE 4.6 mph - N/A   Clear
4:15 AM 30.2 °F 25.4 °F 26.6 °F 86% 30.31 in 10.0 mi NNE 4.6 mph - N/A   Clear
4:35 AM 30.2 °F 25.4 °F 26.6 °F 86% 30.31 in 10.0 mi NNE 4.6 mph - N/A   Clear
4:55 AM 30.2 °F 25.4 °F 26.6 °F 86% 30.30 in 10.0 mi NNE 4.6 mph - N/A   Clear
5:15 AM 30.2 °F 25.4 °F 26.6 °F 86% 30.31 in 10.0 mi NNE 4.6 mph - N/A   Clear
5:35 AM 30.2 °F 25.4 °F 26.6 °F 86% 30.31 in 10.0 mi North 4.6 mph - N/A   Clear
5:55 AM 30.2 °F 25.4 °F 26.6 °F 86% 30.31 in 10.0 mi NNE 4.6 mph - N/A   Clear
6:15 AM 30.2 °F 25.4 °F 26.6 °F 86% 30.32 in 10.0 mi North 4.6 mph - N/A   Clear
6:35 AM 30.2 °F 25.4 °F 26.6 °F 86% 30.32 in 10.0 mi North 4.6 mph - N/A   Clear
7:15 AM 30.2 °F 25.4 °F 26.6 °F 86% 30.33 in 10.0 mi NNE 4.6 mph - N/A   Clear
7:35 AM 30.2 °F 25.4 °F 26.6 °F 86% 30.33 in 10.0 mi NNE 4.6 mph - N/A   Clear
7:55 AM 32.0 °F 26.4 °F 28.4 °F 87% 30.34 in 10.0 mi NNE 5.8 mph - N/A   Clear
8:15 AM 32.0 °F 27.5 °F 28.4 °F 87% 30.33 in 10.0 mi NNE 4.6 mph - N/A   Clear
8:35 AM 33.8 °F 28.6 °F 28.4 °F 81% 30.33 in 10.0 mi NNE 5.8 mph - N/A   Clear
8:55 AM 35.6 °F 31.7 °F 30.2 °F 81% 30.33 in 10.0 mi NE 4.6 mph - N/A   Clear
9:15 AM 37.4 °F 33.8 °F 30.2 °F 75% 30.33 in 10.0 mi NE 4.6 mph - N/A   Clear
9:55 AM 41.0 °F 36.4 °F 30.2 °F 65% 30.32 in 10.0 mi NE 6.9 mph - N/A   Clear
10:15 AM 41.0 °F 36.4 °F 30.2 °F 65% 30.32 in 10.0 mi NNE 6.9 mph - N/A   Clear
10:35 AM 42.8 °F 37.5 °F 30.2 °F 61% 30.31 in 10.0 mi NE 9.2 mph - N/A   Clear
10:55 AM 44.6 °F - 32.0 °F 61% 30.30 in 10.0 mi Calm Calm - N/A   Clear
11:15 AM 44.6 °F 42.2 °F 32.0 °F 61% 30.29 in 10.0 mi NNE 4.6 mph - N/A   Clear
11:35 AM 46.4 °F 41.9 °F 32.0 °F 57% 30.28 in 10.0 mi NNE 9.2 mph - N/A   Clear
11:55 AM 48.2 °F - 32.0 °F 54% 30.27 in 10.0 mi North 6.9 mph - N/A   Clear
12:15 PM 48.2 °F - 32.0 °F 54% 30.26 in 10.0 mi North 5.8 mph - N/A   Clear
12:35 PM 50.0 °F - 32.0 °F 50% 30.25 in 10.0 mi Calm Calm - N/A   Clear
12:55 PM 50.0 °F - 32.0 °F 50% 30.24 in 10.0 mi North 3.5 mph - N/A   Clear
1:15 PM 50.0 °F - 32.0 °F 50% 30.22 in 10.0 mi NNE 5.8 mph - N/A   Clear
1:35 PM 51.8 °F - 32.0 °F 47% 30.22 in 10.0 mi NNE 4.6 mph - N/A   Clear
1:55 PM 51.8 °F - 32.0 °F 47% 30.22 in 10.0 mi NE 6.9 mph - N/A   Clear
2:35 PM 51.8 °F - 32.0 °F 47% 30.20 in 10.0 mi NNE 5.8 mph - N/A   Clear
2:55 PM 51.8 °F - 32.0 °F 47% 30.20 in 10.0 mi NNE 5.8 mph - N/A   Clear
3:15 PM 51.8 °F - 32.0 °F 47% 30.19 in 10.0 mi Calm Calm - N/A   Clear
3:35 PM 50.0 °F - 32.0 °F 50% 30.19 in 10.0 mi North 5.8 mph - N/A   Clear
4:15 PM 50.0 °F - 32.0 °F 50% 30.19 in 10.0 mi North 5.8 mph - N/A   Clear
4:35 PM 48.2 °F - 32.0 °F 54% 30.18 in 10.0 mi North 3.5 mph - N/A   Clear
4:55 PM 46.4 °F 45.2 °F 32.0 °F 57% 30.19 in 10.0 mi North 3.5 mph - N/A   Clear
5:15 PM 44.6 °F 43.1 °F 32.0 °F 61% 30.19 in 10.0 mi North 3.5 mph - N/A   Clear
5:35 PM 42.8 °F 41.1 °F 32.0 °F 66% 30.19 in 10.0 mi North 3.5 mph - N/A   Clear
5:55 PM 42.8 °F 40.1 °F 32.0 °F 66% 30.19 in 10.0 mi North 4.6 mph - N/A   Clear
6:15 PM 42.8 °F 40.1 °F 32.0 °F 66% 30.19 in 10.0 mi North 4.6 mph - N/A   Clear
6:55 PM 41.0 °F 38.0 °F 32.0 °F 70% 30.19 in 10.0 mi NNE 4.6 mph - N/A   Clear
7:55 PM 39.2 °F 35.9 °F 32.0 °F 75% 30.19 in 10.0 mi NE 4.6 mph - N/A   Clear
8:15 PM 37.4 °F 32.1 °F 32.0 °F 81% 30.19 in 10.0 mi NE 6.9 mph - N/A   Clear
8:35 PM 37.4 °F 32.8 °F 32.0 °F 81% 30.19 in 10.0 mi NE 5.8 mph - N/A   Clear
8:55 PM 37.4 °F 32.8 °F 32.0 °F 81% 30.18 in 10.0 mi NE 5.8 mph - N/A   Clear
9:15 PM 35.6 °F 32.8 °F 32.0 °F 87% 30.18 in 10.0 mi ENE 3.5 mph - N/A   Clear
9:35 PM 35.6 °F 32.8 °F 32.0 °F 87% 30.18 in 10.0 mi NE 3.5 mph - N/A   Clear
9:55 PM 33.8 °F 29.6 °F 32.0 °F 93% 30.17 in 10.0 mi NE 4.6 mph - N/A   Clear
10:35 PM 33.8 °F 30.8 °F 32.0 °F 93% 30.16 in 7.0 mi NE 3.5 mph - N/A   Clear
10:55 PM 33.8 °F 30.8 °F 32.0 °F 93% 30.16 in 7.0 mi NNE 3.5 mph - N/A   Clear
11:15 PM 33.8 °F 30.8 °F 32.0 °F 93% 30.16 in 7.0 mi NNE 3.5 mph - N/A   Clear
11:35 PM 32.0 °F 27.5 °F 32.0 °F 100% 30.15 in 7.0 mi NE 4.6 mph - N/A   Clear
11:55 PM 32.0 °F - 30.2 °F 93% 30.15 in 7.0 mi Calm Calm - N/A   Clear